This is the latest recevied weather packets stored in our database for station/object DB0MAK-13. If no packets are shown the sender has not sent any weather packets the latest 1 day(s).
| Time | Temp. | Humidity | Pressure | Rain* | Wind** | Luminosity | Snow |
|---|---|---|---|---|---|---|---|
| 1777968427 | 16.67° C | 72% | 1007.5 hPa | 0 mm | 1.34 m/s, 106° | - | - |
| 1777968244 | 16.67° C | 73% | 1007.5 hPa | 0 mm | 0 m/s | - | - |
| 1777967644 | 16.67° C | 72% | 1007.7 hPa | 0 mm | 1.34 m/s, 89° | - | - |
| 1777967589 | 16.67° C | 73% | 1007.6 hPa | 0 mm | 0.45 m/s, 36° | - | - |
| 1777967167 | 16.11° C | 75% | 1007.6 hPa | 0 mm | 0 m/s | - | - |
| 1777967044 | 16.11° C | 75% | 1007.6 hPa | 0 mm | 1.34 m/s, 53° | - | - |
| 1777966747 | 16.11° C | 75% | 1007.6 hPa | 0 mm | 1.34 m/s, 52° | - | - |
| 1777966444 | 15.56° C | 76% | 1007.7 hPa | 0 mm | 1.34 m/s, 287° | - | - |
| 1777966327 | 15.56° C | 75% | 1007.7 hPa | 0 mm | 0.45 m/s, 315° | - | - |
| 1777965844 | 15° C | 78% | 1007.7 hPa | 0 mm | 0.45 m/s, 307° | - | - |
| 1777965244 | 14.44° C | 80% | 1007.7 hPa | 0 mm | 0 m/s | - | - |
| 1777965069 | 14.44° C | 80% | 1007.7 hPa | 0 mm | 0.45 m/s, 327° | - | - |
| 1777964644 | 14.44° C | 81% | 1007.9 hPa | 0 mm | 0.45 m/s, 302° | - | - |
| 1777964044 | 14.44° C | 81% | 1007.7 hPa | 0 mm | 0.45 m/s, 327° | - | - |
| 1777963809 | 13.89° C | 82% | 1007.7 hPa | 0 mm | 0 m/s | - | - |
| 1777963444 | 13.89° C | 81% | 1007.9 hPa | 0 mm | 0 m/s | - | - |
| 1777963387 | 13.89° C | 81% | 1007.7 hPa | 0 mm | 1.34 m/s, 326° | - | - |
| 1777962969 | 13.89° C | 82% | 1007.9 hPa | 0 mm | 0.45 m/s, 331° | - | - |
| 1777962844 | 13.89° C | 82% | 1008 hPa | 0 mm | 0 m/s | - | - |
| 1777962547 | 13.89° C | 82% | 1007.9 hPa | 0 mm | 0 m/s | - | - |
| 1777962244 | 13.89° C | 82% | 1008 hPa | 0 mm | 0 m/s | - | - |
| 1777962127 | 13.89° C | 82% | 1008 hPa | 0 mm | 1.34 m/s, 54° | - | - |
| 1777961644 | 13.33° C | 82% | 1008.1 hPa | 0 mm | 0 m/s | - | - |
| 1777961044 | 13.33° C | 83% | 1008 hPa | 0 mm | 0 m/s | - | - |
| 1777960867 | 13.33° C | 83% | 1008 hPa | 0 mm | 0 m/s | - | - |
* Rain latest hour (hover to see other rain measurements)
** Current wind speed in m/s (hover to see current wind gust speed)